Location: Newark
(23.1300°N, 73.6109°E)
Time: 09:50:39
(UTC+00:00)

ISS - Visible Passes

Search period start: 08 April 2020 00:00
Search period end: 18 April 2020 00:00
Orbit: 418 x 423 km, 51.6° (Epoch: 08 April)

Date Brightness Start Highest point End Pass type
(mag) Time Alt. Az. Time Alt. Az. Time Alt. Az.
08 Apr -1.7 13:45:12 10° N 13:47:14 15° NE 13:49:15 10° E visible
08 Apr -1.3 15:21:08 10° WNW 15:22:51 22° W 15:22:51 22° W visible
09 Apr -3.4 14:33:40 10° NW 14:36:58 60° SW 14:38:16 32° SSE visible
10 Apr -3.6 13:46:32 10° NNW 13:49:51 59° NE 13:53:09 10° SE visible
11 Apr -0.9 14:37:36 10° W 14:39:14 13° SW 14:40:51 10° SSW visible
12 Apr -1.6 13:49:20 10° WNW 13:52:11 26° SW 13:55:02 10° S visible
